Terug naar catalogus

FENGYUN 1C DEB

ActiefSSO
NORAD 30740·DEBRIS·🇨🇳 China

Gelanceerd May 10, 1999 vanaf Taiyuan Satellite Launch Center

Loading…

Volgende Passages (komende 24 uur)

TLE

VersSource: Space-Track

Epoch: Sep 13, 2026, 07:03 UTC

1 30740U 99025ATA 26256.29429919  .00004926  00000-0  11077-2 0  9994
2 30740  98.6987  17.1183 0027805  19.6419 340.5843 14.56708862 16311

Volg FENGYUN 1C DEB in realtime met AllMySat

Download on the App Store